Flag for U.S.A. Weather past 2 weeks in Yonkers, New York, U.S.A.

Now
50 °F

Clear.


Feels Like: 47 °F
Forecast: 47 / 64 °F
Wind: 8 mph from Northwest

Location: Teterboro Airport

Current Time: Apr 28, 2015 at 7:26:58 AM

Latest Report: Apr 28, 2015 at 6:51 AM


Visibility: 10 mi

Pressure: 29.78 "Hg

Humidity: 63%

Dew point: 38 °F

Location of YonkersLocation

Historic Weather in Yonkers — Graph

°F

Yonkers temperature yesterday

Maximum temperature yesterday: 60 °F (at 5:51 PM)
Minimum temperature yesterday: 48 °F (at 1:51 AM)
Average temperature yesterday: 54 °F

Past Weeks' High & Low Weather Summary

 TemperatureHumidityPressure
High80 °F (Apr 18, 4:51 PM)97% (Apr 20, 8:51 PM)30.48 "Hg (Apr 20, 8:51 PM)
Low36 °F (Apr 25, 2:51 AM)12% (Apr 15, 3:51 PM)29.50 "Hg (Apr 22, 2:51 PM)
Average55 °F48%29.92 "Hg
* Reported Apr 13 5:51 AM — Apr 28 5:51 AM, Yonkers, Weather by CustomWeather, © 2015

Note: Actual official high and low records may vary slightly from our data, if they occured in-between our weather recording intervals... More about our weather records

Advertising

Yonkers weather history for previous 24 hours

 ConditionsComfort  
Time TempWeatherWind HumidityBarometerVisibility
5:51 AM
Tue, Apr 28
48 °FClear.7 mph66%29.75 "Hg10 mi
4:51 AM50 °FClear.8 mph59%29.73 "Hg10 mi
3:51 AM50 °FClear.9 mph63%29.72 "Hg10 mi
2:51 AM51 °FOvercast.14 mph61%29.71 "Hg10 mi
1:51 AM51 °FPartly cloudy.13 mph59%29.72 "Hg10 mi
12:51 AM51 °FClear.12 mph56%29.72 "Hg10 mi
11:51 PM
Mon, Apr 27
52 °FPassing clouds.10 mph53%29.72 "Hg10 mi
10:51 PM53 °FOvercast.14 mph48%29.72 "Hg10 mi
9:51 PM54 °FOvercast.12 mph47%29.71 "Hg10 mi
8:51 PM56 °FOvercast.15 mph40%29.70 "Hg10 mi
7:51 PM57 °FOvercast.14 mph37%29.67 "Hg10 mi
6:51 PM58 °FOvercast.15 mph38%29.65 "Hg10 mi
5:51 PM60 °FOvercast.17 mph33%29.64 "Hg10 mi
4:51 PM59 °FOvercast.15 mph33%29.63 "Hg10 mi
3:51 PM59 °FOvercast.15 mph35%29.64 "Hg10 mi
2:51 PM58 °FOvercast.16 mph36%29.65 "Hg10 mi
1:51 PM59 °FMore clouds than sun.15 mph36%29.65 "Hg10 mi
12:51 PM58 °FOvercast.12 mph36%29.65 "Hg10 mi
11:51 AM58 °FBroken clouds.15 mph38%29.66 "Hg10 mi
10:51 AM58 °FScattered clouds.9 mph39%29.66 "Hg10 mi
9:51 AM55 °FSunny.10 mph45%29.67 "Hg10 mi
8:51 AM50 °FOvercast.7 mph50%29.67 "Hg10 mi
7:51 AM49 °FOvercast.7 mph52%29.67 "Hg10 mi
Weather by CustomWeather, © 2015

See weather overviewHow to use our weather pages